GORIZONT 25 [-]

Last updated on Nov. 14, 2019, 4:22 a.m. UTC

1 21922U 92017A   19317.50297699 -.00000345  00000-0  00000+0 0  9995
2 21922  14.9596   1.8322 0027173  44.7880 307.5806  0.99851595100897
UTC
Height (km)
Latitude
Longitude
Inclination
Orbital Period
UTC large
Height (km)
Speed (km/s)
/
Latitude / Longitude
Inclination (degrees)
Orbital Period (minutes)
Azimuth
Elevation
Range (km)
Doppler Factor
iOS Compass Heading
iOS Angle

Next 30 passes for location: Hong Kong

Rise time Rise Azimuth (degrees) Set time Set Azimuth (degrees) Duration Max altitude (degrees)

No matching passes for this satellites